Flag for Netherlands Weather past 2 weeks in Apeldoorn, Netherlands

Now
41 °F

Quite cool.


Feels Like: 41 °F
Forecast: 43 / 59 °F
Wind: 2 mph from Southeast

Location: Deelen

Current Time: May 29, 2015 at 12:20:56 AM

Latest Report: May 28, 2015 at 11:55 PM


Visibility: N/A

Pressure: 29.95 "Hg

Humidity: 100%

Dew point: 41 °F

Location of ApeldoornLocation

Historic Weather in Apeldoorn — Graph

°F

Apeldoorn temperature yesterday

Maximum temperature yesterday: 61 °F (at 3:25 PM)
Minimum temperature yesterday: 45 °F (at 10:55 PM)
Average temperature yesterday: 56 °F

Past Weeks' High & Low Weather Summary

 TemperatureHumidityPressure
High66 °F (May 22, 12:55 PM)100% (May 16, 12:55 PM)30.33 "Hg (May 16, 12:55 PM)
Low34 °F (May 21, 5:55 AM)32% (May 24, 6:55 PM)29.59 "Hg (May 19, 2:25 AM)
Average52 °F72%30.05 "Hg
* Reported May 13 10:25 PM — May 28 10:55 PM, Apeldoorn, Weather by CustomWeather, © 2015

Note: Actual official high and low records may vary slightly from our data, if they occured in-between our weather recording intervals... More about our weather records

Advertising

Apeldoorn weather history for previous 24 hours

 ConditionsComfort  
Time TempWeatherWind HumidityBarometerVisibility
10:55 PM
Thu, May 28
45 °FPassing clouds.2 mph93%29.95 "HgN/A
10:25 PM46 °FPartly sunny.2 mph87%29.95 "HgN/A
9:55 PM50 °FOvercast.2 mph82%29.95 "HgN/A
9:25 PM54 °FOvercast.2 mph67%29.95 "HgN/A
8:55 PM55 °FScattered clouds.3 mph59%29.92 "HgN/A
8:25 PM57 °FPartly sunny.8 mph55%29.92 "HgN/A
7:55 PM57 °FPartly sunny.9 mph55%29.92 "HgN/A
7:25 PM59 °FScattered clouds.9 mph48%29.92 "HgN/A
6:55 PM59 °FBroken clouds.12 mph55%29.92 "HgN/A
6:25 PM59 °FScattered clouds.13 mph59%29.92 "HgN/A
5:55 PM59 °FBroken clouds.14 mph59%29.92 "HgN/A
5:25 PM59 °FBroken clouds.16 mph51%29.92 "HgN/A
4:55 PM61 °FScattered clouds.13 mph59%29.92 "HgN/A
4:25 PM55 °FDrizzle. Cloudy.13 mph77%29.92 "Hg6 mi
4:03 PM59 °FCloudy.12 mph59%29.89 "HgN/A
3:55 PM59 °FBroken clouds.13 mph59%29.89 "HgN/A
3:25 PM61 °FBroken clouds.13 mph59%29.89 "HgN/A
2:55 PM59 °FLight rain. Broken clouds.10 mph68%29.89 "HgN/A
2:25 PM59 °FLight rain. Broken clouds.13 mph72%29.89 "HgN/A
1:55 PM59 °FBroken clouds.16 mph72%29.89 "HgN/A
1:25 PM59 °FMostly cloudy.12 mph82%29.89 "HgN/A
12:55 PM55 °FMostly cloudy.13 mph88%29.89 "HgN/A
12:25 PM55 °FDrizzle. Broken clouds.13 mph94%29.89 "HgN/A
11:55 AM54 °FLight rain. Broken clouds.8 mph94%29.89 "Hg4 mi
11:25 AM57 °FMostly cloudy.9 mph77%29.89 "HgN/A
10:55 AM57 °FMostly cloudy.13 mph82%29.89 "HgN/A
10:25 AM54 °FDrizzle. Mostly cloudy.9 mph94%29.89 "Hg6 mi
9:55 AM57 °FMostly cloudy.12 mph77%29.89 "HgN/A
9:25 AM57 °FMostly cloudy.12 mph77%29.89 "HgN/A
8:55 AM55 °FOvercast.13 mph77%29.89 "HgN/A
8:25 AM55 °FMostly cloudy.12 mph77%29.89 "HgN/A
7:55 AM55 °FOvercast.16 mph77%29.89 "HgN/A
7:25 AM55 °FMostly cloudy.14 mph77%29.89 "HgN/A
6:55 AM55 °FMostly cloudy.12 mph72%29.89 "HgN/A
6:25 AM55 °FOvercast.12 mph72%29.89 "HgN/A
5:55 AM55 °FPassing clouds.12 mph72%29.89 "HgN/A
5:25 AM55 °FOvercast.12 mph72%29.89 "HgN/A
4:55 AM55 °FMostly cloudy.13 mph72%29.92 "HgN/A
4:25 AM55 °FPassing clouds.12 mph72%29.92 "HgN/A
3:55 AM55 °FMostly cloudy.12 mph72%29.92 "HgN/A
3:25 AM55 °FOvercast.13 mph72%29.92 "HgN/A
2:55 AM54 °FOvercast.10 mph72%29.95 "HgN/A
2:25 AM54 °FPassing clouds.9 mph72%29.95 "HgN/A
1:55 AM54 °FPassing clouds.7 mph72%29.98 "HgN/A
1:25 AM54 °FOvercast.7 mph72%29.98 "HgN/A
12:55 AM54 °FPassing clouds.6 mph72%30.01 "HgN/A
12:25 AM54 °FPassing clouds.5 mph72%30.01 "HgN/A
Weather by CustomWeather, © 2015

See weather overviewHow to use our weather pages